Regional Weather Roundup
Issued by NWS Jackson, KY

Home | Current Version | Previous Version | Graphics & Text | Print | Product List | Glossary On
Versions: 1 2 3 4 5 6 7 8 9 10 11 12 13 14 15 16 17 18 19 20 21 22 23 24 25 26 27
000
ASUS43 KJKL 231610
RWRJKL

EAST KENTUCKY HOURLY WEATHER ROUNDUP
NATIONAL WEATHER SERVICE JACKSON KY
1200 PM EDT SAT JUL 23 2016

NOTE: "FAIR" INDICATES FEW OR NO CLOUDS BELOW 12,000 FEET WITH
NO SIGNIFICANT WEATHER AND/OR OBSTRUCTIONS TO VISIBILITY.

* THESE REPORTS ARE NOT UNDER NWS QUALITY CONTROL AND MAY NOT
  REPORT WEATHER SUCH AS PRECIPITATION AND FOG.

KYZ079-080-083-085-087-088-110-112-115-119-120-231700
...EASTERN KENTUCKY...

CITY           SKY/WX    TMP DP  RH WIND       PRES   REMARKS
JACKSON        SUNNY     84  70  62 CALM      30.07F
LONDON         PTSUNNY   85  70  60 S6        30.05F
SOMERSET*      SUNNY     84  72  65 E3        30.06S
MONTICELLO*    MOSUNNY  N/A N/A N/A VRB5      30.06F
WILLIAMSBURG*  PTSUNNY   84  73  70 CALM      30.05F HX  91
MIDDLESBORO*   MOSUNNY   88  73  61 S3        30.06F HX  95
HARLAN APT*      N/A     88  70  55 CALM      30.07F HX  92
PIKE CO APT*     N/A     84  74  73 CALM      30.08F HX  91
BIG SANDY APT* SUNNY     85  73  67 CALM      30.06F HX  91
MOREHEAD APT*  SUNNY     84  73  70 CALM      30.08S HX  91
ASHLAND*       SUNNY     82  75  78 CALM      30.02S
$$

KYZ035-036-041-042-044-050-067-078-099-231700
...CENTRAL KENTUCKY...

CITY           SKY/WX    TMP DP  RH WIND       PRES   REMARKS
MT STERLING*   MOSUNNY   82  73  74 CALM      30.07S
FLEMING/MASON* PTSUNNY   83  74  74 CALM      30.06F
DANVILLE*      SUNNY     86  72  62 CALM      30.07S HX  92
RICHMOND*      SUNNY     84  72  65 CALM      30.05S
LEXINGTON      PTSUNNY   86  72  62 CALM      30.05S HX  92
FRANKFORT      MOSUNNY   87  72  60 VRB3      30.03F HX  93
LOUISVILLE     MOSUNNY   88  72  58 SE7       30.01F HX  94
LEBANON*         N/A     84  72  65 CALM      30.05S
GLASGOW*       PTSUNNY   86  73  66 E3        30.02F HX  93
BOWLING GREEN  SUNNY     86  75  69 CALM      30.01F HX  95
$$

KYZ091>093-OHZ055-061-077-WVZ005-015-034-035-042-231700
...SOUTHERN OHIO/WEST VIRGINIA...

CITY           SKY/WX    TMP DP  RH WIND       PRES   REMARKS
COVINGTON      MOSUNNY   86  73  65 VRB5      30.03F HX  93
COLUMBUS       PTSUNNY   85  71  63 SW3       30.01F HX  90
DAYTON         PTSUNNY   85  71  63 SW3       30.04F HX  90
WILMINGTON     MOSUNNY   85  72  65 VRB3      30.03F HX  91
HUNTINGTON       N/A     86  73  65 VRB3      30.04F HX  93
CHARLESTON       N/A     85  68  56 VRB3      30.04F
PINEVILLE*       N/A     85  65  50 MISG      30.13F
BECKLEY          N/A     82  64  54 CALM      30.13F
BLUEFIELD        N/A     81  64  56 CALM      30.16F
LOGAN CO APT*    N/A     84  72  65 CALM      30.07F
$$

VAZ002-007-008-TNZ017-027-036-066-071-231700
...SOUTHWEST VIRGINIA/EAST TENNESSEE...

CITY           SKY/WX    TMP DP  RH WIND       PRES   REMARKS
WISE*            N/A     84  59  42 NW3       30.16F
JONESVILLE*      N/A     88  68  51 E5        30.09F HX  91
ABINGDON*        N/A     86  67  52 CALM      30.11F
BRISTOL        PTSUNNY   89  68  49 CALM      30.08S HX  93
MORRISTOWN*    MOSUNNY   90  72  55 CALM      30.06S HX  96
SEVIERVILLE*     N/A     90  70  51 CALM      30.04F HX  95
KNOXVILLE      PTSUNNY   88  70  55 CALM      30.03F HX  93
OAK RIDGE      SUNNY     90  72  55 CALM      30.05S HX  97
CROSSVILLE     MOSUNNY   86  70  58 VRB3      30.10S HX  90
NASHVILLE      PTSUNNY   87  75  67 CALM      30.01F HX  96
$$

...KEY TO REMARKS...
VSB - VISIBILITY IN MILES
WCI - WIND CHILL INDEX
HX  - HEAT INDEX

$$




USA.gov is the U.S. government's official web portal to all federal, state and local government web resources and services.